CAPE
3 3 3 4 2 2 2 2 0 2 2 2 1 1 2 3 4 3 2 7 1 3 0 0 0 0 0 0 0 0 0 5 0 0 0 0 6 0 0 2 7 0 0 0 0 10 76 4 0 2 2 83 135 564
1 3 3 3 2 2 2 2 1 2 2 3 2 1 2 0 4 6 2 2 0 2 0 0 0 0 0 0 0 0 0 0 15 11 9 16 11 46 15 34 22 27 1 0 0 0 0 0 12 226 95 184 66 6
0 3 4 3 2 1 1 2 2 2 2 2 2 2 2 1 1 3 3 5 3 1 0 0 0 0 0 0 0 0 0 0 0 0 0 0 0 84 112 65 101 156 98 19 61 5 5 0 0 8 0 164 139 109
1 1 2 2 2 2 1 1 2 2 2 2 2 1 2 1 2 4 2 5 3 3 0 0 0 0 0 0 0 0 0 0 0 0 0 0 0 0 0 55 62 93 31 30 75 111 124 7 0 4 2 33 86 554
2 1 2 1 1 3 2 2 2 1 2 1 2 2 3 5 1 3 2 9 10 2 1 0 0 0 0 0 0 1 0 0 0 0 0 0 0 0 0 4 0 33 79 60 75 85 46 52 0 0 17 2 22 456
2 2 3 2 1 1 2 2 1 2 2 1 1 2 2 1 3 2 5 0 1 1 1 0 0 0 0 7 0 1 10 8 0 0 0 0 0 0 0 6 0 0 8 13 0 0 35 127 61 6 17 0 0 254
3 3 3 3 2 2 2 2 2 1 1 0 1 1 2 2 4 1 12 0 0 0 0 0 1 0 25 44 20 29 17 6 12 2 0 0 0 0 0 0 0 0 0 10 0 0 6 2 27 1 0 0 33 376
2 2 2 2 2 1 2 1 0 0 0 0 0 3 4 4 4 1 2 5 1 1 1 1 0 1 15 94 56 14 20 12 8 3 0 0 0 0 0 0 0 0 0 22 0 0 0 0 0 3 29 49 453 1682
2 2 2 2 2 2 1 0 0 0 1 0 0 0 8 1 4 0 0 0 2 1 1 3 3 13 17 1 84 5 13 6 9 4 1 0 0 0 0 0 0 10 18 39 117 135 59 2 114 249 753 1130 1130 1887
2 2 1 2 2 2 1 0 0 0 0 0 1 3 12 3 0 0 0 1 2 2 0 1 1 1 2 9 2 24 8 0 38 0 4 3 0 0 0 0 0 24 80 6 14 1 72 118 657 711 1070 1102 1446 1878
2 2 2 2 2 2 0 0 0 0 0 9 28 15 0 0 2 21 14 1 1 1 2 2 2 5 5 12 19 7 37 92 66 70 12 5 1 0 0 0 0 0 127 107 488 840 498 414 251 66 970 1303 1865 2230
2 2 3 2 2 0 0 0 0 5 13 0 1 0 13 28 16 23 25 16 1 1 2 3 4 0 0 4 14 41 21 41 6 262 295 28 11 61 0 0 0 3 23 81 628 501 1 10 0 0 259 138 1604 1882
1 2 2 2 0 0 1 0 2 1 0 9 11 1 10 5 8 11 20 7 2 1 0 0 2 10 6 4 3 24 24 16 3 251 79 157 541 801 144 0 0 21 4 0 152 234 14 6 0 8 63 662 1845 1909
0 0 0 0 0 0 0 0 1 0 0 21 12 0 9 13 10 16 5 1 0 9 25 15 7 12 14 0 0 1 6 19 15 23 82 325 627 909 1044 1363 16 0 0 4 234 2 10 27 0 0 98 198 858 1768
0 0 1 0 0 0 2 0 0 5 29 32 23 2 6 13 17 3 22 18 19 19 24 20 10 8 6 8 1 1 6 18 6 1 7 153 145 560 883 1382 583 73 1 483 257 188 73 21 44 121 20 146 163 928
1 0 0 0 0 0 0 0 3 25 29 22 18 5 1 2 5 27 11 14 24 15 27 4 0 5 12 2 7 15 23 6 4 0 0 0 13 474 889 1431 1309 505 786 1050 840 1075 701 662 802 822 962 1179 1110 1362
0 1 0 0 0 0 0 7 21 11 22 16 10 3 0 4 0 1 4 0 15 14 14 0 2 2 0 1 7 0 8 8 2 0 0 1 126 845 1300 1537 1281 1140 1288 1233 1198 1431 1377 1231 1110 1100 1140 1237 1222 1273
0 1 0 0 0 17 33 4 20 4 2 12 14 4 21 11 3 1 2 3 2 8 5 1 0 2 4 4 1 0 6 3 0 28 3 132 435 787 881 1040 1126 1126 976 327 510 1231 1024 967 880 821 801 802 818 855
1 1 0 0 9 13 23 18 20 7 13 8 9 7 3 0 2 2 5 2 3 10 2 5 3 6 1 13 5 4 1 3 9 24 2 8 137 535 802 1029 1063 878 780 734 717 641 536 340 163 127 113 119 63 70
0 0 0 0 0 38 19 19 29 21 18 10 12 7 2 1 0 1 8 11 12 27 12 3 5 8 1 1 23 9 0 1 1 0 0 0 0 256 385 470 421 383 297 298 150 95 70 45 12 2 0 0 0 0
0 3 0 2 19 22 22 21 22 15 6 2 7 16 21 19 16 15 21 7 13 14 1 2 11 3 3 19 39 19 0 1 1 1 1 3 3 24 197 193 137 72 51 56 68 24 12 17 4 0 0 0 0 1
12 0 26 9 28 24 27 13 7 6 7 8 13 11 12 27 29 45 32 4 8 3 12 22 23 38 25 15 14 16 0 0 1 8 1 1 9 2 25 45 60 42 56 41 40 38 15 2 0 0 0 0 0 0
0 0 25 36 22 12 0 9 13 9 0 10 12 13 15 22 17 25 41 29 22 49 21 49 45 56 42 46 21 15 14 0 0 2 2 29 22 22 8 10 29 45 2 6 12 7 5 0 0 0 0 0 0 0
0 22 22 35 15 0 3 20 15 12 9 13 10 14 3 2 5 0 1 20 24 12 29 39 33 7 10 35 28 25 15 0 0 0 10 27 2 0 7 3 39 17 19 23 27 5 0 0 0 0 0 1 1 0
7 0 1 0 1 4 8 7 10 13 4 10 19 10 15 29 14 19 14 21 26 6 0 9 9 16 21 28 47 39 61 4 0 0 0 4 17 6 0 0 11 55 39 51 59 66 63 8 1 5 1 1 1 11
0 5 0 26 16 9 14 11 16 11 8 13 15 15 11 8 7 21 3 4 6 16 6 6 4 3 3 28 42 59 11 13 16 0 0 3 0 6 1 0 0 9 14 47 54 38 39 24 27 22 24 1 1 6
0 5 12 9 16 18 19 10 4 1 0 2 5 4 6 13 21 11 5 3 0 1 2 3 6 11 1 4 14 35 71 62 14 23 1 5 6 0 0 0 6 0 6 17 27 35 34 12 35 49 25 16 0 0
15 16 19 22 12 6 0 0 1 9 11 3 1 2 0 1 1 0 0 0 0 0 3 1 1 13 48 74 98 41 36 36 24 22 20 11 6 4 0 0 0 0 0 0 3 26 20 40 30 45 41 14 8 0
12 9 10 16 10 8 6 10 4 0 0 0 1 0 0 0 0 0 0 1 1 6 13 22 25 2 16 108 53 41 23 2 7 21 22 19 10 11 11 23 16 5 0 0 0 0 0 0 70 37 46 34 33 11
13 6 10 9 4 6 5 1 1 0 0 1 1 1 1 0 0 0 0 0 28 59 25 10 27 43 17 44 120 93 51 38 31 12 15 17 37 25 35 61 32 28 29 28 17 2 0 0 13 27 66 60 83 87
0 0 1 1 1 2 0 3 0 0 0 0 1 1 0 0 0 4 12 0 4 3 44 206 213 76 77 83 92 92 100 63 56 33 17 23 27 66 195 220 161 160 139 84 94 59 16 2 9 53 72 79 41 26
0 0 1 0 14 18 12 3 9 17 7 6 3 2 31 28 7 4 11 1 14 32 35 106 265 365 454 442 415 301 2 103 180 210 178 186 127 266 154 390 388 307 282 265 149 122 89 54 19 84 117 118 164 123
1 2 7 15 19 37 58 48 37 11 13 18 6 11 16 1 2 26 1 21 14 8 28 18 27 71 150 189 326 87 0 0 0 0 0 0 0 0 62 208 385 352 205 41 93 0 85 56 73 140 106 71 0 0
CIN
0 0 0 0 0 0 0 0 0 0 0 0 0 0 0 0 0 0 -1 -1 -1 0 -1 0 0 0 0 0 0 0 0 -3 0 0 0 0 -4 0 0 -5 -2 0 0 0 0 -17 -11 -71 0 -25 -23 -118 -304 -88
0 0 0 0 0 0 0 0 0 0 0 0 0 0 0 0 0 0 0 -1 -5 -2 0 0 0 0 0 0 0 0 0 0 -3 -15 -33 -7 -9 -1 -18 -23 -10 -1 -2 0 0 0 0 0 -6 -16 -30 -23 -97 -55
0 0 0 0 0 0 0 0 0 0 0 0 0 0 0 0 0 0 0 -1 -1 0 0 -1 0 0 0 0 0 0 0 0 0 0 0 0 0 -24 -8 -40 -28 -26 -6 -4 -4 -5 -20 0 0 -50 -61 -7 -46 -26
0 0 0 0 0 0 0 0 0 0 0 0 0 0 0 0 0 0 0 0 0 0 0 0 0 0 0 0 -1 -2 0 0 0 0 0 0 0 -9 -30 -102 -60 -7 -51 -38 -9 -8 -4 -26 0 -7 -6 -26 -65 -39
0 0 0 0 0 0 0 0 0 0 0 0 0 -1 -1 0 0 0 0 0 0 0 0 0 0 0 -3 0 0 -4 0 0 0 0 0 0 0 0 -51 -173 0 -25 -7 -12 -19 -33 -10 -6 0 0 -7 -12 -60 -55
0 0 0 0 0 0 0 0 0 0 0 0 0 0 0 0 0 0 -2 0 -4 0 -1 0 0 0 0 -5 -5 -8 -1 -3 0 0 0 0 0 0 0 -144 -6 -153 -114 -83 0 -3 -67 -20 -24 -21 -66 0 -1 -49
0 0 0 0 0 0 0 0 0 0 0 0 0 -1 0 0 0 0 0 0 0 0 0 0 -1 -3 -4 -8 -6 -1 -3 -3 -3 -2 0 0 0 0 0 0 0 0 0 -62 0 0 -83 -7 -6 -19 0 0 -82 -35
0 0 0 0 0 0 0 0 0 0 0 -1 -1 0 0 0 0 0 -1 -4 -3 0 0 0 0 -1 -30 -5 -2 -6 -1 -4 -2 -3 -1 0 0 0 0 0 0 0 0 -57 0 -21 0 0 0 -4 -59 -75 -39 -7
0 0 0 0 0 0 0 0 0 0 -1 0 0 0 0 0 0 -1 0 0 -2 -2 0 0 0 0 -8 -6 -1 -28 -8 -4 -3 -3 -4 0 0 0 0 0 -34 -98 -61 -14 -40 -84 -4 -2 -3 -5 -2 -9 -16 -6
0 0 0 0 0 0 0 0 0 0 0 0 -1 0 -1 0 0 0 0 0 0 0 0 0 -1 -1 -1 0 -4 -2 -3 -1 -21 -2 -2 -1 0 0 0 0 0 -88 -27 -82 -108 -6 -84 -57 -9 -4 -12 -24 -1 -2
0 0 0 0 0 0 0 0 0 0 0 -10 0 -2 0 0 0 -1 0 0 0 0 0 0 0 -1 -2 -2 -1 -7 -3 -7 -4 -5 -31 -2 -3 0 0 0 0 0 -11 -39 -3 -47 -267 -267 -216 -283 -13 -3 -3 -3
0 0 0 0 0 0 0 -6 0 -1 0 0 0 0 -1 -3 -1 0 -2 -1 0 0 0 -1 -2 0 0 -5 -2 -3 -2 -3 -1 -6 -2 -48 -44 -4 0 0 0 -5 -8 -17 -27 -93 -64 -329 0 0 -68 -45 -4 -2
0 0 0 0 0 -10 -10 -1 -1 0 0 -2 0 -2 -4 -1 0 0 0 -2 0 -1 -1 -1 0 -1 -3 -3 -4 -2 0 0 -1 0 -4 -1 -17 -30 -22 0 0 -13 -32 0 -19 -85 -172 -189 0 -18 -34 -11 -3 -1
0 0 0 0 0 0 0 0 0 0 0 0 0 -2 0 0 -1 -1 -3 -1 -1 -1 0 0 0 0 -1 -1 -1 0 -1 -3 0 -6 -8 -15 -41 -61 -79 -30 -10 0 0 -51 -27 -8 -92 -215 0 0 -29 -12 -5 -1
0 0 0 0 0 0 0 0 0 -3 0 0 0 -2 -1 -1 -9 -12 -4 -2 -4 -7 -1 0 0 0 0 -1 -3 -3 -2 -1 0 0 -29 -38 -117 -89 -88 -57 -13 -8 -7 -6 -17 -23 -122 -214 -191 -106 -43 -67 -54 -21
0 0 0 -1 0 0 0 0 -10 -3 0 -1 -1 -1 -5 -4 -1 -1 -2 -3 -5 -2 -1 -11 -1 0 0 -1 -1 0 0 -1 -3 0 0 -1 -27 -55 -70 -52 -36 -12 -4 -4 -8 -19 -50 -36 -42 -30 -14 -43 -33 -18
0 0 -1 0 0 0 0 -11 -2 0 0 0 0 -3 -6 -1 -3 -4 -4 -8 -3 -2 -1 0 0 0 0 0 -2 0 -1 0 -1 0 0 -17 -9 -2 -24 -31 -21 -10 -15 -16 -15 -14 -25 -31 -32 -36 -45 -26 -11 -5
0 -4 0 0 0 -2 0 -1 0 0 0 -1 0 -1 0 -3 -9 -16 -4 -3 -9 0 -20 -1 0 0 0 0 0 0 0 -9 -17 -9 -3 -11 -15 -6 -13 -10 -9 -9 -13 -79 -4 -4 -39 -27 -46 -69 -48 -37 -25 -7
0 0 0 0 -2 -3 -1 -2 0 -2 -2 -1 -5 -9 -4 -8 -12 -7 -2 -7 -6 -7 -8 -2 -1 0 -1 -2 -5 -3 0 0 -10 -2 0 -23 -16 -7 -10 -5 -9 -20 -11 -16 -36 -32 -64 -61 -137 -143 -145 -136 -137 -125
0 0 0 0 0 0 0 -1 -1 0 0 -1 -3 -9 -14 -13 -4 -6 -3 -4 -3 -3 -1 -3 -2 -6 -5 -8 -2 -4 0 0 -7 0 0 0 0 -3 -6 -11 -13 -33 -24 -25 -46 -76 -108 -122 -145 -40 0 0 0 0
0 -1 0 -1 -1 0 -1 0 -1 -1 -1 -10 -9 -2 -1 -2 -2 -1 0 -2 -2 -1 -1 -2 -1 -10 -15 -7 -1 -12 0 0 -22 -16 -13 -7 -43 -38 -3 -7 -1 -19 -39 -46 -56 -103 -123 -147 -156 0 0 0 0 -2
-2 0 -1 -8 0 -1 -1 -4 -2 -3 -1 -1 -1 -1 0 -1 -1 -1 -3 -6 -5 -1 -4 -9 -10 -3 -4 -3 -1 -5 0 0 -32 -30 0 -3 -16 -48 -51 -33 -16 -11 -10 -32 -52 -56 -112 -110 0 0 0 0 0 0
0 -2 -1 -1 -1 -1 0 -5 -1 0 0 0 0 0 0 0 -1 -1 -1 -4 -8 -9 -14 -6 -3 -1 -3 -6 -12 -10 -15 0 0 -23 -8 -1 -21 -33 -25 -58 -59 -19 -42 -46 -29 -14 -13 0 0 0 0 0 0 0
0 -3 0 0 0 0 -1 0 -1 0 -1 -1 -2 -1 -2 -2 -6 0 0 0 -2 -11 -4 -4 -1 -15 -10 -5 -7 -18 -26 0 0 0 -10 -6 -12 -6 -51 -26 -53 -16 -16 -21 -6 -26 0 0 0 0 0 0 -1 0
0 0 -1 0 -6 -2 -1 0 0 0 -1 -2 -1 -1 -2 -3 0 -1 -1 0 0 -2 0 -3 -6 -1 -1 -14 -4 -5 -10 -34 -1 0 0 -13 -23 -44 -2 0 -14 -3 -8 -3 -5 -3 -9 -26 -1 -2 -1 -1 0 -2
0 -2 -3 0 -1 -1 -1 -1 -4 -2 -2 -1 -1 0 0 -1 -1 0 -9 -7 -14 -3 -2 -2 0 -1 -1 -1 -5 -5 -17 -19 -15 0 0 -10 0 -2 -8 0 0 -23 -37 -20 -5 -10 -7 -8 -1 -3 -3 -16 -3 -5
0 -1 -1 -2 -1 -1 0 -1 -2 -3 0 -1 -2 -1 -1 0 0 -1 -1 -1 -1 0 0 -1 -2 -3 0 0 -2 -8 -1 -5 -5 -5 -8 -12 -11 -19 0 -4 -15 0 -16 -12 -6 -3 -5 -16 -7 -7 -2 -3 0 0
0 0 0 0 -1 -1 -4 -1 -3 -1 -1 -4 0 0 0 0 0 0 0 0 0 0 0 0 0 -1 0 -2 -6 -9 -3 -3 -6 -5 -1 -3 -7 -24 -3 0 0 0 0 -2 -3 -19 -29 -5 -22 -18 -17 -5 -11 0
0 -1 -1 0 -1 0 -1 0 0 0 0 0 0 0 0 0 0 0 0 -1 0 -32 -31 -5 -16 -26 -8 -4 -15 -2 -2 -9 -10 -4 -1 -4 -4 -5 -15 -3 -2 -7 0 0 0 0 0 0 -15 -29 -23 -20 -14 -19
0 -1 0 0 0 0 -1 -4 -2 0 0 0 0 0 0 0 0 0 0 0 -4 -7 -14 -26 -16 0 0 -1 0 -2 -1 -2 -2 -2 -11 -11 -9 -19 -19 -1 -2 -2 -2 -3 -3 -1 0 0 -34 -19 -6 -10 -4 -16
0 0 0 0 0 0 -3 -6 0 0 0 0 0 0 0 0 0 -45 -43 0 -39 -45 -12 -11 -6 -1 0 -1 -1 -3 -2 -2 -13 -24 -34 -21 -33 -26 -38 -20 -3 -3 -3 -4 -12 -11 -5 -11 -3 -3 -1 -2 -12 -25
0 0 0 0 0 -1 -3 -6 -10 -6 -13 -34 -21 -52 -11 -7 -18 -17 -36 -56 -23 -5 -19 -8 -5 -4 -3 -1 0 -4 0 -2 -1 -1 -2 -16 -43 -23 -78 -23 -18 -22 -7 -2 -11 -12 -13 -12 -27 -20 -1 -7 -21 -37
-1 0 0 0 -1 0 -4 -4 -2 -12 -13 0 0 -2 -4 -12 -1 -3 -16 -7 -5 -15 -4 -15 -3 -34 -21 -26 -10 -14 0 0 0 0 0 0 0 0 -80 -31 -2 -5 -16 -41 -27 0 -20 -18 -22 -16 -30 -41 0 0
Wind_Speed
32 29 26 25 24 20 19 18 19 19 20 20 21 21 22 23 25 23 24 25 20 24 27 31 22 34 34 33 34 31 31 25 27 29 33 37 38 38 42 43 40 39 40 39 37 34 32 18 25 27 26 18 14 19
30 29 27 25 23 21 20 18 18 18 19 19 19 20 20 21 21 21 22 23 23 22 26 46 47 44 46 45 43 37 37 33 22 22 22 28 36 34 38 41 38 43 37 39 34 38 37 19 19 5 9 21 20 16
28 28 27 25 23 22 21 20 19 19 19 18 19 20 19 18 19 17 23 26 26 30 34 26 34 32 33 24 21 39 39 37 32 30 30 28 31 28 32 36 34 30 39 41 35 36 31 24 14 22 14 7 7 5
28 27 26 26 25 23 22 21 19 20 19 19 19 19 18 18 19 16 17 21 19 24 29 23 26 34 37 33 13 33 41 39 32 30 31 33 34 27 29 30 29 28 23 27 31 31 19 19 22 24 16 10 10 11
29 28 28 26 24 24 22 21 20 20 19 18 19 19 19 19 19 18 9 5 1 8 23 31 35 27 27 16 35 23 25 36 37 35 33 35 35 35 36 35 32 28 23 22 31 32 22 15 19 18 13 13 12 11
27 26 26 24 24 22 20 20 21 20 19 19 19 18 18 19 19 21 20 24 4 9 20 25 29 29 26 23 6 19 25 29 33 36 34 33 37 36 36 39 35 31 29 24 27 23 18 9 10 9 13 18 18 13
27 25 23 22 22 22 19 20 20 21 19 19 17 17 16 16 14 15 20 20 17 14 19 25 24 21 20 18 22 22 26 27 29 34 37 37 37 36 41 50 41 36 27 23 27 25 26 30 20 20 19 22 18 15
25 23 23 20 21 20 20 18 21 21 19 18 16 16 15 13 12 10 6 4 8 16 19 21 23 23 19 20 18 18 23 26 29 34 33 37 34 36 39 43 45 40 32 22 20 28 28 24 25 21 23 24 17 12
22 21 21 18 19 18 18 20 22 21 19 16 16 14 15 13 13 14 18 11 8 11 19 21 23 21 16 18 19 18 20 24 26 32 38 30 36 39 31 39 41 38 38 29 29 29 29 33 25 23 20 18 16 12
19 19 18 19 19 18 18 21 22 21 17 17 14 13 15 13 14 14 15 14 9 10 12 26 28 30 30 28 20 18 17 21 23 29 29 43 42 41 42 38 34 40 35 26 28 37 31 30 20 18 20 17 15 12
19 19 19 18 18 16 19 21 22 23 13 12 13 15 15 12 13 13 12 10 10 13 10 18 20 23 23 27 26 20 20 21 23 24 24 32 38 40 43 40 40 36 30 29 25 12 14 15 17 24 22 14 11 9
18 18 18 18 14 16 19 19 16 13 15 16 17 15 14 12 13 15 13 11 10 19 18 17 18 22 24 23 24 22 23 21 24 23 24 31 36 28 22 41 40 28 28 26 22 17 12 11 16 24 20 19 11 11
19 17 16 16 16 18 17 15 12 10 15 13 15 14 11 12 13 16 18 14 19 19 19 19 20 19 19 21 23 21 22 25 24 23 23 24 19 21 23 25 36 25 27 21 24 20 10 5 9 19 13 9 1 2
18 17 17 15 17 17 14 11 10 10 12 13 13 13 9 11 11 17 18 18 21 21 20 19 16 17 19 20 20 20 22 22 23 24 24 17 19 21 23 24 33 31 23 25 16 20 17 8 7 16 21 12 9 5
19 16 14 15 14 13 10 7 7 9 13 13 13 13 9 15 15 18 20 22 23 23 22 22 20 18 13 20 20 22 22 24 23 23 25 27 28 26 26 24 24 27 21 19 17 16 12 5 6 12 18 15 10 10
16 15 12 10 10 11 10 10 11 13 14 14 14 14 18 22 23 20 21 22 21 23 21 19 20 19 19 20 21 23 23 24 24 28 33 36 38 33 31 29 28 23 16 11 8 8 7 4 4 4 3 6 8 8
13 13 9 8 9 10 11 12 11 12 14 15 16 16 25 25 24 24 24 23 21 22 20 19 19 18 20 21 22 22 24 27 25 27 24 27 33 33 30 32 32 26 15 13 9 9 4 2 1 2 3 6 6 7
12 11 10 10 10 11 12 10 13 14 15 15 19 22 21 23 24 24 24 24 23 21 19 19 19 19 20 19 19 15 20 22 22 18 14 10 13 14 13 15 14 11 14 14 9 13 4 3 2 1 3 5 7 7
14 11 10 11 13 14 12 12 12 16 11 18 21 23 22 22 23 25 25 25 25 18 18 18 18 18 19 18 15 18 19 19 17 16 9 9 7 3 1 5 6 9 9 8 9 11 5 7 4 3 4 5 8 8
13 12 11 11 12 14 14 13 11 16 18 17 20 23 23 23 24 25 24 23 22 17 17 19 18 18 18 18 21 22 21 19 16 18 15 9 5 4 5 9 9 10 9 8 8 7 6 5 5 7 8 10 10 11
12 12 12 11 11 10 14 15 12 16 20 19 19 21 21 21 21 23 23 20 18 21 19 22 21 21 19 18 20 21 18 19 17 15 18 20 15 9 6 6 5 4 5 6 7 8 7 6 7 8 8 8 9 10
14 13 13 12 12 12 14 10 18 18 16 18 19 16 17 18 19 19 17 19 20 20 19 20 21 21 20 20 20 20 18 10 12 13 14 16 17 17 15 13 9 6 8 5 8 6 7 9 9 9 6 8 9 9
14 13 9 13 9 16 16 7 16 17 17 16 16 15 14 15 18 19 18 17 16 15 16 16 17 17 17 17 19 15 18 14 10 9 9 9 13 16 16 17 16 19 16 16 14 13 11 9 13 9 6 6 7 8
13 16 16 16 17 16 16 16 17 17 16 17 17 14 13 14 13 15 17 16 15 14 15 16 18 19 18 16 13 15 17 16 14 9 10 9 11 13 15 16 20 17 10 17 15 12 16 12 10 6 6 8 6 7
16 16 16 16 17 17 17 16 16 16 16 17 16 14 15 16 16 16 14 12 13 15 16 18 19 20 19 19 17 15 14 14 15 15 12 15 15 14 16 14 11 4 10 12 4 9 8 10 12 7 5 5 5 5
15 17 17 16 17 17 15 15 16 14 15 16 16 14 13 14 12 12 13 13 14 16 19 21 21 21 20 19 19 18 18 17 12 11 17 17 15 17 3 17 17 17 4 12 6 6 9 16 12 8 8 9 11 12
15 16 17 17 16 15 15 15 14 14 13 14 13 13 14 14 12 13 13 14 17 17 17 18 19 19 19 20 20 20 16 19 18 16 12 16 17 16 19 17 18 17 17 16 13 8 9 13 16 16 12 8 8 5
16 15 16 16 16 16 17 16 15 16 15 14 13 14 13 12 13 13 14 13 13 14 14 14 14 15 17 17 17 17 19 16 17 17 16 17 16 18 17 20 15 17 19 19 17 16 15 15 11 16 19 11 10 7
16 15 16 17 18 17 14 12 13 14 14 15 18 17 15 15 15 14 12 10 10 11 11 12 12 13 14 15 16 16 14 17 16 14 14 15 16 19 22 22 12 16 21 24 21 23 18 17 15 16 19 18 16 9
17 14 18 18 17 15 13 15 18 17 16 17 18 17 16 15 14 12 11 9 8 7 8 9 10 12 13 13 12 11 14 14 16 14 13 13 14 17 19 19 17 18 18 19 20 14 14 17 16 15 13 13 12 13
18 17 17 16 18 18 21 17 17 17 16 14 18 19 14 12 12 15 14 10 8 6 4 15 16 11 12 11 11 14 17 17 16 16 15 14 15 16 19 20 17 16 16 15 17 18 12 14 18 20 18 16 19 21
20 20 17 17 19 20 19 18 16 20 22 17 13 13 10 4 5 8 19 5 11 16 16 13 13 19 20 18 17 17 17 18 17 17 17 16 16 17 17 17 17 18 17 17 12 11 10 15 24 22 17 22 21 24
19 20 20 19 17 13 14 19 21 8 2 13 16 7 10 13 6 12 14 11 14 12 14 14 14 21 18 24 24 23 22 22 21 20 18 17 17 16 15 16 17 18 20 21 19 19 15 9 16 17 17 19 19 22
Wind_Direction
345 345 346 346 346 345 344 344 344 345 347 348 349 351 352 351 349 349 339 335 332 326 324 293 311 290 278 271 266 273 282 276 269 267 257 251 250 250 244 243 241 241 242 245 247 248 250 292 285 267 261 279 322 287
345 345 344 344 345 346 345 344 344 346 345 347 348 350 351 350 351 350 344 340 339 324 312 280 270 259 256 249 256 265 258 267 278 275 276 260 253 257 245 244 246 243 244 243 249 248 246 291 286 336 293 269 266 283
343 344 344 345 345 345 344 344 344 345 346 347 348 348 349 350 348 346 338 332 334 321 317 308 292 275 263 222 279 256 253 254 260 265 265 262 253 262 242 240 253 261 246 244 248 250 254 257 292 261 261 309 340 343
338 340 342 343 343 344 345 344 346 345 346 346 347 347 349 348 345 346 342 336 340 328 315 315 298 278 268 267 273 256 245 243 261 265 263 255 250 262 257 256 258 248 272 247 249 254 269 263 258 259 280 308 311 317
333 334 335 339 342 341 342 344 345 346 346 348 347 348 348 348 348 347 334 308 253 357 325 281 280 263 273 288 245 270 266 242 244 253 255 253 254 258 257 254 248 245 255 251 246 255 255 263 255 261 284 282 298 308
330 331 332 337 338 341 343 343 344 344 345 346 346 347 349 350 353 354 354 348 49 8 341 330 288 280 275 284 195 269 264 256 250 247 254 256 251 256 250 243 245 249 259 275 262 264 266 258 261 289 284 275 279 287
326 328 330 333 336 336 340 339 341 343 344 346 348 350 350 352 356 353 339 339 350 357 340 320 291 296 287 290 276 272 264 259 256 248 248 250 252 254 248 238 239 245 296 296 274 271 257 245 275 272 278 272 280 284
322 324 326 329 332 334 337 340 339 342 344 348 351 353 355 357 359 359 344 192 2 335 325 307 279 274 295 285 284 283 266 262 257 249 252 246 254 251 247 241 242 250 259 264 231 251 264 273 276 273 279 273 273 269
319 321 324 328 331 335 337 337 338 340 344 348 353 356 3 19 25 24 2 57 38 352 308 289 274 285 310 305 291 285 281 268 265 252 241 254 247 240 252 245 242 248 251 256 265 271 263 254 265 269 272 267 262 255
316 322 325 328 331 334 337 334 337 340 345 350 3 15 8 27 30 25 13 3 29 2 347 253 255 244 262 277 291 284 285 271 271 258 259 235 242 240 237 243 247 242 257 263 259 261 275 278 278 274 266 259 249 237
314 321 324 327 330 336 334 335 338 339 360 13 10 3 8 35 10 4 14 48 50 5 131 212 228 256 273 259 264 282 280 274 268 270 262 253 246 242 233 238 237 245 252 249 251 246 273 275 282 309 270 235 209 187
315 319 323 326 334 335 334 337 343 355 357 358 354 358 1 10 357 340 342 14 43 237 226 244 249 269 259 270 263 267 267 272 263 280 269 257 249 265 256 232 231 248 251 256 267 276 297 301 269 288 290 268 167 163
318 324 326 331 333 330 334 341 348 359 347 6 3 9 27 13 347 324 289 314 263 275 244 244 261 253 241 222 250 265 260 258 274 270 273 273 287 280 253 242 236 243 249 261 262 258 261 314 278 272 254 293 19 153
320 324 327 333 331 331 336 346 359 10 5 1 1 360 20 6 349 304 288 293 264 253 255 242 229 228 216 215 229 254 248 252 244 253 263 288 288 274 264 255 237 239 248 252 252 246 256 271 285 254 269 297 342 301
321 333 340 334 337 340 356 21 36 17 356 352 349 349 356 330 325 308 292 265 269 254 262 271 253 210 175 233 254 257 250 244 262 271 278 273 266 265 255 246 245 232 244 242 249 246 255 264 271 260 263 286 298 294
329 340 350 2 15 19 23 23 2 348 344 340 333 331 313 291 285 286 282 268 271 261 286 296 279 255 257 246 256 244 257 256 273 290 275 263 245 251 246 239 235 235 230 226 220 221 222 236 26 16 348 301 308 323
353 352 14 34 21 15 10 358 359 347 338 336 328 318 277 274 275 273 265 267 276 264 272 284 270 272 261 252 266 290 256 271 265 266 252 236 213 231 236 233 229 232 211 208 220 215 231 207 123 43 12 15 352 345
353 6 32 28 18 15 2 3 346 340 334 330 311 295 294 280 274 267 259 254 256 262 278 274 263 257 264 277 244 221 262 266 260 264 235 285 248 245 236 226 222 195 200 200 217 221 212 216 200 276 333 357 2 6
319 23 18 13 1 359 11 356 356 337 357 318 298 285 283 275 267 254 248 246 242 272 275 269 247 264 266 268 244 272 275 286 259 263 228 272 268 23 151 201 197 197 198 200 208 226 228 251 267 295 339 1 340 335
348 3 20 22 18 3 354 2 10 336 318 305 268 268 259 259 254 242 245 249 243 264 266 253 255 276 260 246 308 309 300 293 280 286 267 280 308 277 240 217 215 216 220 225 225 236 238 260 288 296 310 316 318 318
32 33 39 54 44 57 357 350 9 324 303 301 290 276 269 265 256 246 248 251 253 249 260 249 269 258 226 237 285 303 292 300 292 272 251 221 224 250 234 210 219 203 218 226 240 243 257 281 293 296 312 321 320 322
27 55 42 72 59 44 190 348 236 260 261 248 258 280 265 255 246 246 258 248 244 250 266 274 276 279 262 262 310 319 312 229 268 267 265 241 229 213 216 228 247 246 252 246 242 247 254 258 265 276 313 326 332 334
26 21 3 83 128 220 212 197 168 179 186 194 196 204 222 239 241 241 247 253 251 270 275 276 287 283 277 286 322 36 358 283 237 252 271 253 226 221 231 223 221 218 225 225 235 235 241 259 259 286 328 335 353 337
39 290 266 221 202 213 199 192 182 194 199 193 189 206 215 216 236 240 235 240 253 260 260 269 284 287 276 233 61 76 54 70 162 217 213 274 242 243 237 218 216 228 263 249 241 250 248 265 289 325 339 305 13 11
226 220 210 211 208 199 194 196 200 205 203 209 214 216 205 196 209 212 229 247 265 264 272 280 286 280 275 272 299 16 73 97 102 245 242 180 207 223 215 227 240 297 76 81 350 263 278 276 270 305 23 10 358 16
203 198 192 200 196 198 203 198 199 208 212 207 212 227 229 217 231 236 246 257 264 264 278 283 282 278 278 289 294 292 276 263 94 29 193 210 239 222 291 219 222 246 285 251 311 311 291 262 285 310 314 320 308 304
192 189 187 189 190 194 193 193 198 196 207 207 222 226 222 220 229 231 237 266 259 260 256 250 269 288 294 289 296 292 313 287 295 302 322 285 279 282 260 269 280 283 287 284 286 312 305 281 278 280 296 314 333 329
190 190 185 186 182 179 171 169 170 170 173 183 187 189 207 224 232 217 209 227 229 227 224 221 215 216 231 234 223 247 270 318 308 305 306 301 292 283 286 279 295 290 280 285 287 293 307 297 297 291 286 309 326 345
182 189 183 172 171 169 173 180 183 186 182 170 160 158 164 175 176 177 193 211 216 203 205 226 228 225 217 209 216 213 335 338 344 330 317 313 301 287 286 280 297 295 284 275 281 279 295 301 304 297 291 297 311 316
174 182 171 169 164 159 158 149 144 155 163 156 152 145 153 153 157 166 171 171 179 195 205 185 206 201 185 199 303 39 46 51 16 13 1 342 324 301 292 294 292 289 289 287 287 296 289 291 300 304 305 312 310 328
165 167 168 169 158 156 144 150 147 143 148 154 156 142 144 150 149 121 131 155 164 184 178 340 347 313 310 281 258 289 24 54 50 54 43 27 342 324 298 288 298 299 296 295 295 296 300 297 295 296 296 295 296 294
155 156 162 163 162 160 156 154 143 137 129 134 146 145 155 167 341 335 109 103 340 356 109 342 346 1 2 349 336 6 99 22 36 71 67 49 347 329 304 287 281 268 275 278 317 323 322 303 281 282 305 296 299 296
159 160 159 157 166 190 181 152 113 143 285 0 2 299 327 346 305 334 327 319 330 321 325 331 331 6 358 23 33 32 32 36 41 43 35 19 351 295 259 261 273 261 259 261 282 275 291 325 306 311 320 317 305 300